Regional Weather Roundup
Issued by NWS Upton, NY

Current Version | Previous Version | Text Only | Print | Product List | Glossary On
Versions: 1 2 3 4 5 6 7 8 9 10 11 12 13 14 15 16 17 18 19 20 21 22 23 24 25 26 27 28 29 30 31 32 33 34 35 36 37 38 39 40 41 42 43 44 45 46 47 48 49 50
000 ASUS41 KOKX 301808 RWROKX REGIONAL WEATHER ROUNDUP NATIONAL WEATHER SERVICE NEW YORK NY 200 PM EDT THU JUL 30 2015 NOTE: "FAIR" INDICATES FEW OR NO CLOUDS BELOW 12,000 FEET WITH NO SIGNIFICANT WEATHER AND/OR OBSTRUCTIONS TO VISIBILITY. NYZ071-072-176-178-NJZ106-104-301900- NEW YORK CITY METRO AREA CITY SKY/WX TMP DP RH WIND PRES REMARKS CENTRAL PARK CLOUDY 81 77 88 CALM 29.86F FOG LAGUARDIA APRT LGT RAIN 83 73 72 S13 29.83F KENNEDY INTL PTSUNNY 83 75 77 S18G26 29.85F HX 90 NEWARK/LIBERTY PTSUNNY 90 72 55 SW18G26 29.82F HX 97 BRNX BOT. GARD N/A 81 73 78 S14 29.85F TETERBORO PTSUNNY 87 76 69 W3 29.82F HX 97 $$ NYZ177-179-078>081-301900- LONG ISLAND NEW YORK CITY SKY/WX TMP DP RH WIND PRES REMARKS FARMINGDALE CLOUDY 82 73 74 SW21G28 29.86F ISLIP CLOUDY 83 73 72 S18G30 29.85F SHIRLEY PTSUNNY 83 74 74 SW18G29 29.88F WESTHAMPTON PTSUNNY 85 75 72 SW16G26 29.89F HX 93 MONTAUK POINT N/A 80 74 81 S8G18 29.90F $$ NYZ052-065-067-301900- HUDSON VALLEY CITY SKY/WX TMP DP RH WIND PRES REMARKS WHITE PLAINS LGT RAIN 82 75 79 S10 29.85F NEWBURGH PTSUNNY 84 75 74 W17G23 29.83F HX 92 MONTGOMERY PTSUNNY 83 75 77 SW13 29.82F HX 90 POUGHKEEPSIE HVY RAIN 82 76 81 S17 29.81F ALBANY RAIN 80 75 84 SW7 29.79S $$ NJZ001-105-106-008-010-013-015-019>022-104-301900- NEW JERSEY CITY SKY/WX TMP DP RH WIND PRES REMARKS NEWARK/LIBERTY PTSUNNY 90 72 55 SW18G26 29.82F HX 97 TETERBORO PTSUNNY 87 76 69 W3 29.82F HX 97 CALDWELL PTSUNNY 87 73 62 SW7 29.83F HX 94 MORRISTOWN PTSUNNY 90 73 58 S12G24 29.84F HX 98 SOMERVILLE MOSUNNY 85 76 74 S6 29.82F HX 94 SUSSEX PTSUNNY 84 74 71 VRB5 29.84F HX 91 ANDOVER N/A 83 74 74 SW7 29.85F TRENTON PTSUNNY 88 73 61 SW17 29.85F HX 95 MILLVILLE MOSUNNY 88 74 63 SW13 29.88F HX 96 ATLANTIC CITY MOSUNNY 87 75 67 S10 29.88F HX 96 WRIGHTSTOWN PTSUNNY 90 76 62 SW18G24 29.83F HX 101 TOMS RIVER N/A 88 75 66 S14 29.87F HX 97 BELMAR PTSUNNY 84 73 70 SW6 29.86F HX 91 $$ PAZ047>061-062-071-301900- EASTERN PENNSYLVANIA CITY SKY/WX TMP DP RH WIND PRES REMARKS PHILADELPHIA CLOUDY 90 73 57 S16 29.86F HX 98 ALLENTOWN TSTM 79 73 83 W12G21 29.87R VSB 1/4 SCRANTON LGT RAIN 81 72 74 SW13G21 29.87S $$ CTZ002-004>006-009-010-012-RIZ004-006-007-MAZ004-011-015-301900- SOUTHERN NEW ENGLAND IN CT CITY SKY/WX TMP DP RH WIND PRES REMARKS BRADLEY INTL PTSUNNY 87 72 60 SW16G25 29.81F HX 93 HARTFORD PTSUNNY 89 74 60 SW12G24 29.81F HX 98 DANBURY PTSUNNY 84 73 69 SW10 29.86F HX 90 WTRBRY/OXFORD CLOUDY 82 72 69 S12G17 29.89F HAZE BRIDGEPORT PTSUNNY 85 75 72 SW13 29.85F HX 93 MERIDEN PTSUNNY 86 73 65 S12G20 29.84F HX 93 NEW HAVEN CLOUDY 83 75 77 S9 29.86F HX 90 CHESTER CLOUDY 81 73 78 S12G17 29.88F GROTON CLOUDY 78 73 84 SW15 29.86F WILLIMANTIC PTSUNNY 87 72 60 S15G22 29.84F HX 93 IN RI CITY SKY/WX TMP DP RH WIND PRES REMARKS PROVIDENCE CLOUDY 86 73 65 SW18G24 29.85F HX 93 BLOCK ISLAND N/A 79 73 83 SW18G24 29.90F WESTERLY PTSUNNY 81 73 76 SW10G18 29.88F IN MA CITY SKY/WX TMP DP RH WIND PRES REMARKS BOSTON CLOUDY 89 70 53 SW21G28 29.80F HX 94 WORCESTER PTSUNNY 84 70 62 SW14G23 29.86F WESTFIELD PTSUNNY 86 73 65 S13 29.81F HX 93 PROVINCETOWN CLOUDY 81 68 65 SW17G24 29.85S NANTUCKET PTSUNNY 77 71 82 SW12 29.91S $$ ANZ330-335-338-340-345-350-353-355-301900- COASTAL MARINE OBSERVATIONS STATION/POSITION TIME SKY/WX TEMP WIND PRES VSBY WAVE AIR SEA DIR/SP/G HT/PER (UTC) (F) (DEG/KT/KT) (MB) (MI) (FT/S) NY HARB ENTRANCE 1750 78 77 190/ 23/ 27 1010.2 5/ 5 4S FIRE IS NOT AVBL 20S FIRE ISLAND 1750 77 76 200/ 16/ 19 1011.6 4/ 5 GREAT SOUTH BAY 1700 78 81 220/ 14/ 21 N/A 23SW MTP 1750 76 74 220/ 17/ 21 1011.6 4/ 5 HUDSON CANYON NOT AVBL KINGS POINT 1700 80 71 190/ 12/ 14 1010.6 EXECUTION ROCKS 1700 81 190/ 6/ 8 N/A CENTRAL LI SOUND NOT AVBL EASTERN LI SOUND 1700 75 68 210/ 12/ 16 N/A ROBBINS REEF 1700 81 160/ 10/ 11 1009.9 $$ >>>>>>>>>>>>>>>>>>>>>>>>>>>> KEY <<<<<<<<<<<<<<<<<<<<<<<<<<< > < > SKY/WX - SKY CONDITION/PRESENT WEATHER < > TMP - TEMPERATURE IN FAHRENHEIT < > DP - DEWPOINT IN FAHRENHEIT < > RH - RELATIVE HUMIDITY IN PERCENT < > WIND - DIRECTION AND SPEED IN MPH < > PRES - MEAN SEA LEVEL PRESSURE IN INCHES OF HG < > WCI - WIND CHILL INDEX < > VSB - VISIBILITY IN MILES < > HX - HEAT INDEX < > TC - TEMPERATURE IN CELSIUS < > VRB - VARIABLE WIND DIRECTION < > < >>>>>>>>>>>>>>>>>>>>>>>>>>>> KEY <<<<<<<<<<<<<<<<<<<<<<<<<<<

USA.gov is the U.S. government's official web portal to all federal, state and local government web resources and services.